Tiempo cada hora Golden Gate

Hoy, 30 Noviembre, Lunes

Tiempo Temperatura Precipitaciones Viento Presión Humedad
00:00 +25°C° 0 mm 4 mps 761 mmHg 84%
01:00 +24°C° 0 mm 3 mps 760 mmHg 89%
02:00 +24°C° 0 mm 3 mps 760 mmHg 89%
03:00 +23°C° 0 mm 4 mps 759 mmHg 89%
04:00 +23°C° 0 mm 4 mps 759 mmHg 89%
05:00 +23°C° 0 mm 5 mps 759 mmHg 88%
06:00 +23°C° 0 mm 5 mps 759 mmHg 87%
07:00 +24°C° 0 mm 3 mps 759 mmHg 92%
08:00 +25°C° 0.2 mm 4 mps 759 mmHg 85%
09:00 +27°C° 0.2 mm 5 mps 760 mmHg 79%
10:00 +28°C° 0.2 mm 6 mps 760 mmHg 73%
11:00 +28°C° 0.9 mm 7 mps 759 mmHg 72%
12:00 +28°C° 0.9 mm 7 mps 759 mmHg 71%
13:00 +28°C° 0.9 mm 7 mps 758 mmHg 71%
14:00 +27°C° 0.2 mm 7 mps 758 mmHg 72%
15:00 +26°C° 0.2 mm 7 mps 758 mmHg 73%
16:00 +24°C° 0.2 mm 6 mps 758 mmHg 74%
17:00 +24°C° 0 mm 7 mps 758 mmHg 74%
18:00 +23°C° 0 mm 7 mps 759 mmHg 74%
19:00 +22°C° 0 mm 7 mps 760 mmHg 73%
20:00 +22°C° 0 mm 7 mps 760 mmHg 71%
21:00 +21°C° 0 mm 7 mps 761 mmHg 69%
22:00 +20°C° 0 mm 7 mps 761 mmHg 66%
23:00 +18°C° 0 mm 7 mps 761 mmHg 67%

Mañana, 1 Diciembre, Martes

Tiempo Temperatura Precipitaciones Viento Presión Humedad
00:00 +18°C° 0 mm 7 mps 761 mmHg 68%
01:00 +17°C° 0 mm 7 mps 762 mmHg 69%
02:00 +16°C° 0 mm 7 mps 762 mmHg 68%
03:00 +16°C° 0 mm 6 mps 762 mmHg 68%
04:00 +15°C° 0 mm 6 mps 762 mmHg 68%
05:00 +14°C° 0 mm 6 mps 763 mmHg 69%
06:00 +14°C° 0 mm 6 mps 764 mmHg 69%
07:00 +13°C° 0 mm 6 mps 764 mmHg 70%
08:00 +14°C° 0 mm 6 mps 765 mmHg 65%
09:00 +14°C° 0 mm 7 mps 765 mmHg 60%
10:00 +14°C° 0 mm 7 mps 766 mmHg 55%
11:00 +15°C° 0 mm 7 mps 766 mmHg 51%
12:00 +16°C° 0 mm 6 mps 765 mmHg 47%
13:00 +17°C° 0 mm 6 mps 765 mmHg 43%
14:00 +17°C° 0 mm 6 mps 765 mmHg 41%
15:00 +16°C° 0 mm 6 mps 765 mmHg 38%
16:00 +16°C° 0 mm 6 mps 764 mmHg 35%
17:00 +15°C° 0 mm 5 mps 765 mmHg 37%
18:00 +13°C° 0 mm 5 mps 765 mmHg 39%
19:00 +12°C° 0 mm 4 mps 766 mmHg 41%
20:00 +11°C° 0 mm 4 mps 766 mmHg 42%
21:00 +10°C° 0 mm 5 mps 766 mmHg 43%
22:00 +9°C° 0 mm 5 mps 766 mmHg 45%
23:00 +9°C° 0 mm 5 mps 766 mmHg 43%

Pasado mañana, 2 Diciembre, Miércoles

Tiempo Temperatura Precipitaciones Viento Presión Humedad
00:00 +8°C° 0 mm 5 mps 766 mmHg 41%
01:00 +8°C° 0 mm 5 mps 766 mmHg 40%
02:00 +7°C° 0 mm 5 mps 766 mmHg 41%
03:00 +7°C° 0 mm 5 mps 765 mmHg 42%
04:00 +7°C° 0 mm 5 mps 765 mmHg 43%
05:00 +6°C° 0 mm 5 mps 766 mmHg 43%
06:00 +6°C° 0 mm 5 mps 766 mmHg 43%
07:00 +6°C° 0 mm 5 mps 767 mmHg 44%
08:00 +8°C° 0 mm 5 mps 767 mmHg 47%
09:00 +10°C° 0 mm 5 mps 767 mmHg 50%
10:00 +13°C° 0 mm 6 mps 767 mmHg 53%
11:00 +15°C° 0 mm 6 mps 767 mmHg 52%
12:00 +19°C° 0 mm 6 mps 767 mmHg 51%
13:00 +21°C° 0 mm 6 mps 766 mmHg 51%
14:00 +21°C° 0 mm 6 mps 766 mmHg 51%
15:00 +22°C° 0 mm 6 mps 766 mmHg 52%
16:00 +22°C° 0 mm 6 mps 765 mmHg 52%
17:00 +21°C° 0 mm 6 mps 766 mmHg 57%
18:00 +19°C° 0 mm 6 mps 766 mmHg 62%
19:00 +17°C° 0 mm 5 mps 766 mmHg 67%
20:00 +16°C° 0 mm 5 mps 766 mmHg 68%
21:00 +16°C° 0 mm 5 mps 766 mmHg 70%
22:00 +15°C° 0 mm 4 mps 766 mmHg 71%
23:00 +15°C° 0 mm 4 mps 766 mmHg 73%

3 Diciembre, Jueves

Tiempo Temperatura Precipitaciones Viento Presión Humedad
00:00 +15°C° 0 mm 4 mps 766 mmHg 74%
01:00 +15°C° 0 mm 4 mps 766 mmHg 75%
02:00 +15°C° 0 mm 4 mps 766 mmHg 77%
03:00 +15°C° 0 mm 4 mps 765 mmHg 79%
04:00 +15°C° 0 mm 4 mps 765 mmHg 80%
05:00 +15°C° 0 mm 4 mps 765 mmHg 82%
06:00 +15°C° 0 mm 4 mps 766 mmHg 83%
07:00 +15°C° 0 mm 4 mps 766 mmHg 84%
08:00 +17°C° 0 mm 5 mps 766 mmHg 77%
09:00 +20°C° 0 mm 5 mps 766 mmHg 69%
10:00 +23°C° 0 mm 6 mps 766 mmHg 62%
11:00 +25°C° 0 mm 5 mps 766 mmHg 59%
12:00 +26°C° 0 mm 5 mps 765 mmHg 57%
13:00 +27°C° 0 mm 5 mps 765 mmHg 55%
14:00 +26°C° 0 mm 5 mps 765 mmHg 57%
15:00 +26°C° 0 mm 5 mps 764 mmHg 59%
16:00 +26°C° 0 mm 4 mps 764 mmHg 62%
17:00 +25°C° 0 mm 4 mps 764 mmHg 64%
18:00 +23°C° 0 mm 4 mps 765 mmHg 66%
19:00 +23°C° 0 mm 5 mps 765 mmHg 68%
20:00 +22°C° 0 mm 5 mps 765 mmHg 68%
21:00 +22°C° 0 mm 4 mps 765 mmHg 69%
22:00 +22°C° 0 mm 4 mps 765 mmHg 70%
23:00 +21°C° 0 mm 4 mps 765 mmHg 71%

4 Diciembre, Viernes

Tiempo Temperatura Precipitaciones Viento Presión Humedad
00:00 +21°C° 0 mm 4 mps 765 mmHg 72%
01:00 +21°C° 0 mm 4 mps 765 mmHg 74%
02:00 +21°C° 0 mm 4 mps 764 mmHg 74%
03:00 +21°C° 0 mm 4 mps 764 mmHg 74%
04:00 +21°C° 0 mm 5 mps 763 mmHg 74%
05:00 +21°C° 0 mm 4 mps 764 mmHg 77%
06:00 +20°C° 0 mm 4 mps 764 mmHg 80%
07:00 +20°C° 0 mm 4 mps 764 mmHg 83%
08:00 +22°C° 0 mm 4 mps 764 mmHg 77%
09:00 +23°C° 0 mm 4 mps 764 mmHg 71%
10:00 +26°C° 0 mm 4 mps 765 mmHg 65%
11:00 +27°C° 0 mm 4 mps 764 mmHg 63%
12:00 +27°C° 0 mm 4 mps 764 mmHg 61%
13:00 +28°C° 0 mm 3 mps 763 mmHg 59%
14:00 +27°C° 1.5 mm 3 mps 763 mmHg 64%
15:00 +27°C° 1.5 mm 3 mps 762 mmHg 68%
16:00 +26°C° 1.5 mm 4 mps 762 mmHg 73%
17:00 +25°C° 0.8 mm 3 mps 762 mmHg 76%
18:00 +24°C° 0.8 mm 3 mps 762 mmHg 80%
19:00 +24°C° 0.8 mm 3 mps 762 mmHg 84%
20:00 +22°C° 0 mm 3 mps 762 mmHg 85%
21:00 +22°C° 0 mm 3 mps 763 mmHg 86%
22:00 +22°C° 0 mm 3 mps 763 mmHg 87%
23:00 +22°C° 0 mm 3 mps 762 mmHg 87%

5 Diciembre, Sábado

Tiempo Temperatura Precipitaciones Viento Presión Humedad
00:00 +22°C° 0 mm 3 mps 762 mmHg 86%
01:00 +22°C° 0 mm 3 mps 762 mmHg 86%
02:00 +22°C° 0 mm 3 mps 761 mmHg 86%
03:00 +22°C° 0 mm 3 mps 761 mmHg 87%
04:00 +22°C° 0 mm 3 mps 761 mmHg 87%
05:00 +21°C° 0.1 mm 4 mps 761 mmHg 88%
06:00 +21°C° 0.1 mm 4 mps 761 mmHg 90%
07:00 +21°C° 0.1 mm 4 mps 761 mmHg 91%
08:00 +22°C° 0.1 mm 4 mps 761 mmHg 88%
09:00 +22°C° 0.1 mm 4 mps 761 mmHg 84%
10:00 +23°C° 0.1 mm 4 mps 761 mmHg 80%
11:00 +23°C° 1.5 mm 4 mps 760 mmHg 84%
12:00 +23°C° 1.5 mm 4 mps 760 mmHg 87%
13:00 +23°C° 1.5 mm 4 mps 759 mmHg 90%
14:00 +23°C° 1.1 mm 5 mps 759 mmHg 87%
15:00 +23°C° 1.1 mm 7 mps 759 mmHg 85%
16:00 +24°C° 1.1 mm 8 mps 759 mmHg 82%
17:00 +22°C° 0.3 mm 8 mps 759 mmHg 82%
18:00 +21°C° 0.3 mm 8 mps 760 mmHg 81%
19:00 +20°C° 0.3 mm 8 mps 760 mmHg 81%
20:00 +18°C° 0 mm 8 mps 760 mmHg 78%
21:00 +17°C° 0 mm 8 mps 761 mmHg 75%
22:00 +16°C° 0 mm 8 mps 761 mmHg 71%
23:00 +16°C° 0 mm 8 mps 761 mmHg 72%
Mostrar más

Necesitamos Su Consentimiento

Meteoprog y nuestros Proveedores de Servicios pueden almacenar y acceder a sus datos personales como cookies, identificadores de dispositivo u otras tecnologías similares de su dispositivo y procesar dichos datos para personalizar contenido y anuncios, además de ofrecer funciones de redes sociales y analizar el tráfico.

  • Almacenar y/o acceder a información en su dispositivo

    Se puede almacenar o acceder a cookies, identificadores de dispositivo u otra información de su dispositivo para los fines anteriormente indicados.

  • Anuncios y contenido personalizados, medición de anuncios y contenido, percepciones del público, y desarrollo de productos

    Los anuncios y el contenido pueden personalizarse en base a su perfil. Se pueden añadir más datos para personalizar mejor los anuncios y contenidos. Se puede medir el rendimiento de los anuncios y contenidos. Se puede obtener la percepción sobre el público que ha visto los anuncios y contenidos. Dichos datos pueden usarse para desarrollar o mejorar la experiencia del usuario, sistemas y software.

Al hacer clic en ‘Estoy De Acuerdo’ usted permitirá el uso de las cookies, identificadores de dispositivo, balizas web u otras tecnologías similares indicadas. Su configuración puede cambiarse desde el navegador de su dispositivo.

Para ciertos fines, los intereses legítimos pueden ser considerados por encima del consentimiento. Puede leer más sobre ello en nuestra Política de Privacidad y Cookies.